Flag for Denmark Weather past 2 weeks in Copenhagen, Denmark

Now
59 °F

Partly sunny.


Feels Like: 56 °F
Forecast: 54 / 63 °F
Wind: 14 mph from West

Location: Koebenhavn-Kastrup Airport

Current Time: Sep 5, 2015 at 10:54:07 AM

Latest Report: Sep 5, 2015 at 10:20 AM


Visibility: N/A

Pressure: 29.53 "Hg

Humidity: 82%

Dew point: 54 °F

Location of CopenhagenLocation

Historic Weather in Copenhagen — Graph

°F

Copenhagen temperature yesterday

Maximum temperature yesterday: 64 °F (at 2:50 PM)
Minimum temperature yesterday: 52 °F (at 3:20 AM)
Average temperature yesterday: 58 °F

Past Weeks' High & Low Weather Summary

 TemperatureHumidityPressure
High75 °F (Aug 21, 1:50 PM)100% (Aug 25, 6:50 AM)30.36 "Hg (Aug 25, 6:50 AM)
Low52 °F (Sep 4, 3:20 AM)38% (Aug 22, 1:50 PM)29.53 "Hg (Sep 5, 6:20 AM)
Average63 °F77%29.94 "Hg
* Reported Aug 21 9:20 AM — Sep 5 9:20 AM, Copenhagen, Weather by CustomWeather, © 2015

Note: Actual official high and low records may vary slightly from our data, if they occured in-between our weather recording intervals... More about our weather records

Advertising

Copenhagen weather history for previous 24 hours

 ConditionsComfort  
Time TempWeatherWind HumidityBarometerVisibility
9:20 AM
Sat, Sep 5
57 °FScattered clouds.14 mph88%29.53 "HgN/A
8:50 AM55 °FBroken clouds.12 mph94%29.53 "HgN/A
8:20 AM55 °FPartly sunny.12 mph94%29.53 "HgN/A
7:50 AM55 °FSprinkles. Broken clouds.9 mph100%29.53 "HgN/A
7:20 AM55 °FSprinkles. Partly cloudy.12 mph94%29.53 "Hg2 mi
6:50 AM57 °FPartly cloudy.9 mph82%29.53 "HgN/A
6:20 AM57 °FPassing clouds.9 mph82%29.53 "HgN/A
5:50 AM57 °FPassing clouds.10 mph82%29.56 "HgN/A
5:20 AM57 °FPartly cloudy.12 mph82%29.56 "HgN/A
4:50 AM57 °FPartly cloudy.12 mph82%29.59 "HgN/A
4:20 AM57 °FPassing clouds.15 mph82%29.59 "HgN/A
3:50 AM57 °FPassing clouds.13 mph82%29.62 "HgN/A
3:20 AM57 °FClear.14 mph82%29.62 "Hg10 mi
2:50 AM57 °FClear.14 mph82%29.65 "Hg10 mi
2:20 AM59 °FPassing clouds.14 mph77%29.65 "HgN/A
1:50 AM57 °FSprinkles. Passing clouds.13 mph82%29.68 "HgN/A
1:20 AM57 °FSprinkles. Partly cloudy.13 mph82%29.68 "HgN/A
12:50 AM57 °FSprinkles. Partly cloudy.13 mph82%29.68 "HgN/A
12:20 AM57 °FPassing clouds.12 mph82%29.71 "HgN/A
11:20 PM
Fri, Sep 4
59 °FPassing clouds.10 mph72%29.74 "HgN/A
10:50 PM59 °FPassing clouds.10 mph77%29.74 "HgN/A
10:20 PM59 °FPassing clouds.10 mph77%29.74 "HgN/A
9:50 PM59 °FPassing clouds.8 mph77%29.74 "HgN/A
9:20 PM57 °FPassing clouds.6 mph82%29.77 "HgN/A
8:50 PM57 °FBroken clouds.8 mph82%29.77 "HgN/A
8:20 PM57 °FBroken clouds.7 mph88%29.77 "HgN/A
7:50 PM55 °FSprinkles. Broken clouds.5 mph94%29.77 "HgN/A
7:20 PM55 °FSprinkles. Broken clouds.12 mph88%29.80 "Hg4 mi
6:50 PM57 °FBroken clouds.10 mph77%29.80 "HgN/A
6:20 PM57 °FSprinkles. Broken clouds.17 mph77%29.80 "HgN/A
5:50 PM61 °FSprinkles. Partly sunny.8 mph63%29.80 "HgN/A
5:20 PM61 °FPartly sunny.14 mph72%29.80 "HgN/A
4:50 PM61 °FPartly sunny.15 mph68%29.80 "HgN/A
4:20 PM61 °FPartly sunny.13 mph68%29.83 "HgN/A
3:20 PM64 °FScattered clouds.14 mph64%29.83 "HgN/A
2:50 PM64 °FScattered clouds.12 mph60%29.86 "HgN/A
2:20 PM63 °FPartly sunny.12 mph73%29.86 "HgN/A
1:50 PM61 °FPartly sunny.14 mph72%29.86 "HgN/A
1:20 PM61 °FPartly sunny.14 mph72%29.86 "HgN/A
12:50 PM61 °FPartly sunny.14 mph68%29.86 "HgN/A
12:20 PM59 °FBroken clouds.15 mph77%29.86 "HgN/A
11:50 AM59 °FBroken clouds.13 mph72%29.86 "HgN/A
11:20 AM59 °FPartly sunny.12 mph72%29.86 "HgN/A
10:50 AM57 °FBroken clouds.9 mph77%29.89 "HgN/A
10:20 AM57 °FBroken clouds.9 mph77%29.89 "HgN/A
Weather by CustomWeather, © 2015

See weather overviewHow to use our weather pages